Change the Weather History Date:

Monday, January 7, 2013

  Actual Average Record
Temperature  
Mean Temperature 24 °F -  
Max Temperature 39 °F 19 °F 48 °F (2003)
Min Temperature 10 °F 1 °F -23 °F (2014)
Degree Days  
Heating Degree Days 40    
Moisture  
Dew Point 16 °F    
Average Humidity 68    
Maximum Humidity 80    
Minimum Humidity 49    
Precipitation  
Precipitation 0.00 in - - ()
Sea Level Pressure  
Sea Level Pressure 29.75 in    
Wind  
Wind Speed 7 mph (SW)    
Max Wind Speed 18 mph    
Max Gust Speed 29 mph    
Visibility 10 miles    
Events      
Averages and records for this station are not official NWS values.
T = Trace of Precipitation, MM = Missing Value Source: NWS Daily Summary

Daily Weather History Graph

Daily Weather History Graph

Search for Another Location

Airport or City:

Trip Planner

Search our weather history database for the weather conditions in past years. The results will help you decide how hot, cold, wet, or windy it might be!

Date:

Astronomy

Jan. 07, 2013 Rise Set
Actual Time 7:52 AM CST 4:35 PM CST
Civil Twilight 7:17 AM CST 5:10 PM CST
Nautical Twilight 6:38 AM CST 5:48 PM CST
Astronomical Twilight 6:02 AM CST 6:25 PM CST
Moon 3:11 AM CST (1/7) 12:49 PM CST (1/7)
Length of Visible Light 9h 52m
Length of Day
8h 43m
Waning Crescent, 22% of the Moon is Illuminated
Jan 7
Waning Crescent
Jan 11
New
Jan 18
First Quarter
Jan 26
Full
Feb 3
Last Quarter

Hourly Weather History & Observations

Time (CST) Temp. Windchill Dew Point Humidity Pressure Visibility Wind Dir Wind Speed Gust Speed Precip Events Conditions
12:12 AM 10.4 °F - 5.0 °F 79% 29.91 in 10.0 mi Calm Calm - N/A   Clear
12:31 AM 12.2 °F - 6.8 °F 79% 29.89 in 10.0 mi Calm Calm - N/A   Clear
12:51 AM 14.0 °F 5.1 °F 6.8 °F 73% 29.90 in 10.0 mi SSW 5.8 mph - N/A   Clear
1:12 AM 15.8 °F 7.2 °F 8.6 °F 73% 29.88 in 10.0 mi SSW 5.8 mph - N/A   Clear
1:31 AM 14.0 °F 5.1 °F 6.8 °F 73% 29.87 in 10.0 mi SSW 5.8 mph - N/A   Clear
1:51 AM 15.8 °F 10.2 °F 6.8 °F 68% 29.85 in 10.0 mi South 3.5 mph - N/A   Clear
2:11 AM 15.8 °F 6.1 °F 8.6 °F 73% 29.83 in 10.0 mi South 6.9 mph - N/A   Clear
2:31 AM 15.8 °F 7.2 °F 10.4 °F 79% 29.81 in 10.0 mi South 5.8 mph - N/A   Clear
2:51 AM 15.8 °F 7.2 °F 10.4 °F 79% 29.79 in 10.0 mi SSW 5.8 mph - N/A   Clear
3:11 AM 15.8 °F 8.6 °F 10.4 °F 79% 29.78 in 10.0 mi SSW 4.6 mph - N/A   Clear
3:31 AM 15.8 °F 8.6 °F 10.4 °F 79% 29.77 in 10.0 mi WSW 4.6 mph - N/A   Clear
3:51 AM 14.0 °F 6.5 °F 8.6 °F 79% 29.76 in 10.0 mi WSW 4.6 mph - N/A   Clear
4:11 AM 15.8 °F 7.2 °F 8.6 °F 73% 29.75 in 10.0 mi SW 5.8 mph - N/A   Clear
4:51 AM 17.6 °F 5.0 °F 10.4 °F 73% 29.74 in 10.0 mi SW 11.5 mph - N/A   Clear
5:11 AM 17.6 °F 8.2 °F 10.4 °F 73% 29.73 in 10.0 mi SW 6.9 mph - N/A   Clear
5:31 AM 17.6 °F 6.4 °F 10.4 °F 73% 29.72 in 10.0 mi SW 9.2 mph - N/A   Clear
5:51 AM 19.4 °F 7.9 °F 12.2 °F 74% 29.72 in 10.0 mi WSW 10.4 mph - N/A   Clear
6:12 AM 19.4 °F 7.2 °F 12.2 °F 74% 29.70 in 10.0 mi SW 11.5 mph - N/A   Clear
6:31 AM 19.4 °F 7.9 °F 12.2 °F 74% 29.71 in 10.0 mi SW 10.4 mph - N/A   Clear
6:51 AM 19.4 °F 7.9 °F 12.2 °F 74% 29.70 in 10.0 mi SW 10.4 mph - N/A   Clear
7:11 AM 19.4 °F 8.6 °F 12.2 °F 74% 29.69 in 10.0 mi SW 9.2 mph - N/A   Clear
7:31 AM 19.4 °F 8.6 °F 14.0 °F 80% 29.69 in 10.0 mi SW 9.2 mph - N/A   Clear
7:52 AM 21.2 °F 10.1 °F 14.0 °F 74% 29.68 in 10.0 mi SW 10.4 mph - N/A   Scattered Clouds
8:11 AM 21.2 °F 9.5 °F 15.8 °F 80% 29.69 in 10.0 mi SW 11.5 mph - N/A   Mostly Cloudy
8:31 AM 23.0 °F 12.4 °F 15.8 °F 74% 29.70 in 10.0 mi SW 10.4 mph 17.3 mph N/A   Scattered Clouds
8:52 AM 23.0 °F 12.4 °F 15.8 °F 74% 29.69 in 10.0 mi SW 10.4 mph 16.1 mph N/A   Clear
9:11 AM 24.8 °F 14.6 °F 15.8 °F 69% 29.70 in 10.0 mi SW 10.4 mph 18.4 mph N/A   Clear
9:31 AM 24.8 °F 14.0 °F 15.8 °F 69% 29.70 in 10.0 mi SW 11.5 mph 17.3 mph N/A   Clear
9:52 AM 24.8 °F 11.9 °F 17.6 °F 74% 29.70 in 10.0 mi SW 16.1 mph 20.7 mph N/A   Clear
10:11 AM 26.6 °F 14.3 °F 17.6 °F 69% 29.70 in 10.0 mi SW 16.1 mph - N/A   Clear
10:31 AM 28.4 °F 20.4 °F 17.6 °F 64% 29.70 in 10.0 mi WSW 8.1 mph 11.5 mph N/A   Clear
10:52 AM 30.2 °F 20.2 °F 19.4 °F 64% 29.70 in 10.0 mi SW 12.7 mph - N/A   Clear
11:31 AM 32.0 °F 20.8 °F 19.4 °F 60% 29.68 in 10.0 mi SW 17.3 mph 20.7 mph N/A   Clear
11:52 AM 33.8 °F 25.3 °F 21.2 °F 60% 29.67 in 10.0 mi SW 11.5 mph 24.2 mph N/A   Clear
12:11 PM 35.6 °F 27.1 °F 21.2 °F 56% 29.66 in 10.0 mi WSW 12.7 mph 23.0 mph N/A   Clear
1:11 PM 37.4 °F 28.2 °F 21.2 °F 52% 29.65 in 10.0 mi WSW 16.1 mph 24.2 mph N/A   Clear
1:51 PM 39.2 °F 30.8 °F 21.2 °F 49% 29.66 in 10.0 mi WSW 15.0 mph 28.8 mph N/A   Clear
2:12 PM 39.2 °F 29.8 °F 21.2 °F 49% 29.66 in 10.0 mi WSW 18.4 mph 28.8 mph N/A   Clear
2:31 PM 37.4 °F 28.5 °F 21.2 °F 52% 29.66 in 10.0 mi SW 15.0 mph 23.0 mph N/A   Clear
2:51 PM 37.4 °F 29.3 °F 21.2 °F 52% 29.67 in 10.0 mi SW 12.7 mph 25.3 mph N/A   Clear
3:11 PM 37.4 °F 29.8 °F 21.2 °F 52% 29.67 in 10.0 mi SW 11.5 mph 19.6 mph N/A   Clear
3:31 PM 37.4 °F 28.2 °F 23.0 °F 56% 29.68 in 10.0 mi SW 16.1 mph 24.2 mph N/A   Clear
3:52 PM 35.6 °F 27.1 °F 21.2 °F 56% 29.68 in 10.0 mi WSW 12.7 mph 20.7 mph N/A   Clear
4:11 PM 35.6 °F 27.5 °F 21.2 °F 56% 29.69 in 10.0 mi WSW 11.5 mph - N/A   Clear
4:52 PM 35.6 °F 28.6 °F 21.2 °F 56% 29.71 in 10.0 mi WSW 9.2 mph - N/A   Clear
5:11 PM 33.8 °F 25.8 °F 21.2 °F 60% 29.71 in 10.0 mi WSW 10.4 mph 17.3 mph N/A   Clear
5:31 PM 33.8 °F 25.3 °F 21.2 °F 60% 29.72 in 10.0 mi WSW 11.5 mph 16.1 mph N/A   Clear
5:52 PM 33.8 °F 26.4 °F 21.2 °F 60% 29.73 in 10.0 mi WSW 9.2 mph - N/A   Clear
6:11 PM 33.8 °F 25.8 °F 21.2 °F 60% 29.74 in 10.0 mi WSW 10.4 mph - N/A   Clear
6:31 PM 33.8 °F 27.0 °F 21.2 °F 60% 29.75 in 10.0 mi West 8.1 mph - N/A   Clear
6:52 PM 33.8 °F 26.4 °F 21.2 °F 60% 29.76 in 10.0 mi WSW 9.2 mph 17.3 mph N/A   Clear
7:11 PM 32.0 °F 24.2 °F 21.2 °F 64% 29.77 in 10.0 mi WSW 9.2 mph - N/A   Clear
7:31 PM 32.0 °F 24.8 °F 21.2 °F 64% 29.77 in 10.0 mi West 8.1 mph - N/A   Clear
7:51 PM 30.2 °F 21.9 °F 19.4 °F 64% 29.77 in 10.0 mi West 9.2 mph - N/A   Clear
8:11 PM 30.2 °F 23.4 °F 19.4 °F 64% 29.78 in 10.0 mi West 6.9 mph - N/A   Clear
8:32 PM 30.2 °F 24.3 °F 19.4 °F 64% 29.79 in 10.0 mi West 5.8 mph - N/A   Clear
8:51 PM 30.2 °F 23.4 °F 19.4 °F 64% 29.79 in 10.0 mi West 6.9 mph - N/A   Clear
9:11 PM 28.4 °F 21.2 °F 19.4 °F 69% 29.80 in 10.0 mi West 6.9 mph - N/A   Clear
9:32 PM 28.4 °F 22.2 °F 19.4 °F 69% 29.81 in 10.0 mi West 5.8 mph - N/A   Clear
9:51 PM 28.4 °F 20.4 °F 19.4 °F 69% 29.81 in 10.0 mi West 8.1 mph - N/A   Clear
10:11 PM 28.4 °F 21.2 °F 19.4 °F 69% 29.82 in 10.0 mi West 6.9 mph - N/A   Clear
10:32 PM 26.6 °F 19.1 °F 19.4 °F 74% 29.82 in 10.0 mi West 6.9 mph - N/A   Clear
10:51 PM 26.6 °F 20.0 °F 19.4 °F 74% 29.83 in 10.0 mi West 5.8 mph - N/A   Clear
11:11 PM 26.6 °F 21.2 °F 17.6 °F 69% 29.84 in 10.0 mi SW 4.6 mph - N/A   Clear
11:32 PM 24.8 °F - 17.6 °F 74% 29.85 in 10.0 mi Calm Calm - N/A   Clear
11:51 PM 24.8 °F 20.5 °F 17.6 °F 74% 29.85 in 10.0 mi SW 3.5 mph - N/A   Clear